Flag for Finland Weather past 2 weeks in Rovaniemi, Finland

Now
48 °F

Cloudy.


Feels Like: 45 °F
Forecast: 46 / 59 °F
Wind: 8 mph from Northeast

Location: Rovaniemi Airport

Current Time: Aug 23, 2014 at 7:42:39 AM

Latest Report: Aug 23, 2014 at 7:20 AM


Visibility: N/A

Pressure: 29.68 "Hg

Humidity: 94%

Dew point: 46 °F

Location of RovaniemiLocation

Historic Weather in Rovaniemi — Graph

°F

Rovaniemi temperature yesterday

Maximum temperature yesterday: 55 °F (at 3:50 PM)
Minimum temperature yesterday: 48 °F (at 3:50 AM)
Average temperature yesterday: 51 °F

Past Weeks' High & Low Weather Summary

 TemperatureHumidityPressure
High73 °F (Aug 8, 1:20 PM)100% (Aug 10, 7:20 AM)29.89 "Hg (Aug 10, 7:20 AM)
Low39 °F (Aug 18, 6:20 AM)42% (Aug 18, 4:50 PM)29.39 "Hg (Aug 12, 6:50 PM)
Average55 °F85%29.61 "Hg
* Reported Aug 8 6:20 AM — Aug 23 6:20 AM, Rovaniemi, Weather by CustomWeather, © 2014

Note: Actual official high and low records may vary slightly from our data, if they occured in-between our weather recording intervals... More about our weather records

Advertising

Rovaniemi weather history for previous 24 hours

 ConditionsComfort  
Time TempWeatherWind HumidityBarometerVisibility
6:20 AM
Aug 23
46 °FSunny.10 mph93%29.68 "Hg10 mi
5:50 AM46 °FPassing clouds.8 mph93%29.68 "HgN/A
5:20 AM46 °FOvercast.9 mph100%29.68 "HgN/A
4:50 AM46 °FPassing clouds.10 mph100%29.68 "HgN/A
4:20 AM46 °FPassing clouds.12 mph93%29.68 "HgN/A
3:50 AM48 °FMostly cloudy.9 mph94%29.68 "HgN/A
3:20 AM48 °FMostly cloudy.8 mph94%29.68 "HgN/A
2:50 AM48 °FOvercast.9 mph94%29.68 "HgN/A
2:20 AM48 °FMostly cloudy.13 mph94%29.68 "HgN/A
1:50 AM48 °FOvercast.9 mph94%29.68 "HgN/A
1:20 AM48 °FClear.10 mph100%29.68 "Hg10 mi
12:50 AM48 °FClear.12 mph100%29.68 "Hg10 mi
12:20 AM48 °FClear.12 mph100%29.65 "Hg10 mi
11:50 PM
Aug 22
50 °FPartly cloudy.13 mph94%29.65 "HgN/A
11:20 PM50 °FPassing clouds.12 mph94%29.65 "HgN/A
10:50 PM50 °FMostly cloudy.10 mph94%29.65 "HgN/A
10:20 PM50 °FMore clouds than sun.9 mph94%29.65 "HgN/A
9:50 PM50 °FSprinkles. More clouds than sun.10 mph100%29.65 "HgN/A
9:20 PM52 °FSprinkles. Partly sunny.12 mph94%29.65 "HgN/A
8:50 PM52 °FPartly sunny.12 mph94%29.65 "HgN/A
8:20 PM52 °FLight rain. Partly sunny.13 mph94%29.65 "HgN/A
7:50 PM54 °FLight rain. Partly sunny.10 mph88%29.65 "HgN/A
7:20 PM54 °FLight rain. Broken clouds.10 mph88%29.65 "HgN/A
6:50 PM54 °FLight rain. Broken clouds.9 mph88%29.65 "HgN/A
6:20 PM55 °FPartly sunny.10 mph82%29.65 "HgN/A
5:50 PM54 °FPartly sunny.10 mph88%29.65 "HgN/A
5:20 PM55 °FScattered showers. Partly sunny.12 mph82%29.65 "HgN/A
4:50 PM55 °FScattered showers. Partly sunny.12 mph82%29.65 "HgN/A
4:20 PM55 °FScattered showers. Partly sunny.10 mph82%29.65 "HgN/A
3:50 PM55 °FScattered showers. Partly sunny.10 mph82%29.65 "HgN/A
3:20 PM54 °FScattered showers. Broken clouds.12 mph88%29.65 "HgN/A
2:50 PM54 °FScattered showers. Broken clouds.12 mph88%29.65 "HgN/A
2:20 PM54 °FBroken clouds.12 mph88%29.65 "HgN/A
1:50 PM54 °FBroken clouds.10 mph88%29.65 "HgN/A
1:20 PM52 °FPartly sunny.12 mph94%29.65 "HgN/A
12:50 PM52 °FSprinkles. Partly sunny.12 mph94%29.65 "HgN/A
12:20 PM52 °FScattered showers. Partly sunny.12 mph88%29.65 "HgN/A
11:51 AM50 °FPartly sunny.12 mph94%29.65 "HgN/A
11:20 AM50 °FPartly sunny.10 mph94%29.65 "HgN/A
10:50 AM50 °FPartly sunny.7 mph94%29.65 "HgN/A
10:20 AM48 °FLight rain. Partly sunny.12 mph100%29.65 "HgN/A
9:50 AM48 °FScattered showers. Partly sunny.13 mph100%29.65 "HgN/A
9:20 AM48 °FSprinkles. Partly sunny.12 mph100%29.65 "HgN/A
8:50 AM48 °FSprinkles. Partly sunny.13 mph100%29.65 "HgN/A
8:20 AM48 °FSprinkles. Partly sunny.9 mph100%29.65 "HgN/A
7:50 AM48 °FSprinkles. Partly sunny.14 mph94%29.65 "HgN/A
7:20 AM48 °FPartly sunny.13 mph94%29.65 "HgN/A
Weather by CustomWeather, © 2014

See weather overviewHow to use our weather pages